Content
SEND FEEDBACK

Daily
Averages
Monthly
Summary
Thailand

BANGKOK, THAILAND


Home > Asia > Thailand
Elevation: 66 feet     Latitude: 13 44N     Longitude: 100 34E

WEATHER
 
SELECT A DAY
Number of Records: 235,489;   Date Range: 7/1/96 - 8/12/14
 
SHARE

PRINT THIS DATA

[ ← Previous Day ]
WEATHER ALMANAC - JANUARY 29, 2013
[ Next Day → ]
[ °C ]   °F
Weather ElementAverageHighLow
Temperature80.8 °F89.6 °F (2:30 pm)73.4 °F (6:30 am)
Dewpoint71.2 °F73.4 °F (3:30 am)68 °F (2:00 pm)
Humidity73.5 %94 % (3:30 am)46 % (1:00 pm)
Barometer29.94 in29.98 in (9:00 am)29.89 in (3:00 am)
Wind Speed4.2 mph9.2 mph (1:00 pm)
Weather ElementAverage
Visibility4 mi
Wind DirectionENE (78.8 °)

Weather ElementTotal
Precipitation---
Cooling Degree Days16.5 (Base 65)
Growing Degree Days31.5 (Base 50)
Averaged from 51 records on January 29, 2013
WEATHER CONDITIONS BREAKOUT
WIND DIRECTION BREAKOUT
WEATHER BY HOUR - JANUARY 29, 2013
[ °C ]   °F
Local TimeTemperatureDewpointHumidityBarometerVisibilityWind DirectionWind SpeedGust SpeedPrecipitationEventsConditions
12:30 AM77.0 °F71.6 °F83 %29.95 in4.3 miENE (60°)3.5 mphMostly Cloudy
1:00 AM77.0 °F72.0 °F81 %29.95 in4.0 miCalmMist
1:00 AM77.0 °F71.6 °F83 %29.95 in4.3 miCalmMostly Cloudy
1:30 AM77.0 °F71.6 °F83 %29.92 in3.7 miESE (120°)3.5 mphScattered Clouds
2:00 AM77.0 °F71.6 °F83 %29.92 in3.7 miNE (40°)3.5 mphScattered Clouds
2:30 AM75.2 °F71.6 °F89 %29.92 in3.7 miEast (100°)3.5 mphScattered Clouds
3:00 AM75.2 °F71.6 °F89 %29.89 in3.7 miEast (100°)3.5 mphScattered Clouds
3:30 AM75.2 °F73.4 °F94 %29.92 in3.1 miENE (60°)4.6 mphMostly Cloudy
4:00 AM75.2 °F73.4 °F94 %29.92 in3.1 miENE (70°)4.6 mphMostly Cloudy
4:30 AM75.2 °F73.4 °F94 %29.92 in2.5 miENE (70°)4.6 mphMostly Cloudy
5:00 AM75.2 °F71.6 °F89 %29.92 in2.5 miENE (60°)3.5 mphMostly Cloudy
5:30 AM75.2 °F71.6 °F89 %29.92 in1.9 miNE (50°)3.5 mphMostly Cloudy
6:00 AM75.2 °F71.6 °F89 %29.95 in1.9 miNE (50°)3.5 mphMostly Cloudy
6:30 AM73.4 °F71.6 °F94 %29.95 in1.6 miENE (60°)4.6 mphMostly Cloudy
7:00 AM74.0 °F71.0 °F89 %29.96 in1.0 miEast (90°)3.5 mphMist
7:00 AM73.4 °F71.6 °F94 %29.95 in1.2 miEast (90°)3.5 mphMostly Cloudy
7:30 AM73.4 °F71.6 °F94 %29.95 in1.9 miENE (60°)4.6 mphMostly Cloudy
8:00 AM73.4 °F71.6 °F94 %29.95 in1.9 miENE (60°)5.8 mphMostly Cloudy
8:30 AM75.2 °F71.6 °F89 %29.95 in3.1 miENE (70°)3.5 mphMostly Cloudy
9:00 AM77.0 °F71.6 °F83 %29.98 in3.1 miENE (60°)4.6 mphMostly Cloudy
9:30 AM78.8 °F71.6 °F78 %29.98 in4.3 miNE (50°)4.6 mphMostly Cloudy
10:00 AM80.6 °F71.6 °F74 %29.98 in4.3 miEast (80°)5.8 mphMostly Cloudy
10:30 AM82.4 °F71.6 °F70 %29.98 in4.3 miESE (110°)4.6 mphMostly Cloudy
11:00 AM84.2 °F69.8 °F62 %29.98 in4.3 miEast (100°)5.8 mphMostly Cloudy
11:30 AM84.2 °F69.8 °F62 %29.98 in5.0 miENE (70°)5.8 mphMostly Cloudy
12:00 PM86.0 °F69.8 °F58 %29.98 in5.0 miNorth (350°)3.5 mphMostly Cloudy
12:30 PM86.0 °F69.8 °F58 %29.95 in5.0 miESE (120°)4.6 mphMostly Cloudy
1:00 PM87.0 °F69.0 °F46 %29.95 in5.0 miEast (100°)9.2 mphHaze
1:00 PM87.8 °F69.8 °F55 %29.95 in5.0 miEast (100°)9.2 mphMostly Cloudy
1:30 PM87.8 °F69.8 °F55 %29.92 in5.0 miESE (120°)5.8 mphMostly Cloudy
2:00 PM87.8 °F68.0 °F52 %29.92 in5.0 miEast (80°)4.6 mphMostly Cloudy
2:30 PM89.6 °F69.8 °F52 %29.89 in5.0 miEast (90°)2.3 mphMostly Cloudy
3:00 PM87.8 °F69.8 °F55 %29.89 in5.6 miEast (90°)5.8 mphMostly Cloudy
3:30 PM87.8 °F69.8 °F55 %29.89 in5.6 miEast (80°)3.5 mphMostly Cloudy
4:00 PM86.0 °F69.8 °F58 %29.89 in5.6 miNE (40°)4.6 mphMostly Cloudy
4:30 PM86.0 °F69.8 °F58 %29.89 in5.6 miNNE (30°)6.9 mphMostly Cloudy
5:00 PM84.2 °F71.6 °F66 %29.89 in5.6 miNNE (30°)4.6 mphMostly Cloudy
5:30 PM84.2 °F71.6 °F66 %29.89 in5.6 miNNE (20°)3.5 mphMostly Cloudy
6:00 PM84.2 °F71.6 °F66 %29.92 in4.3 miNE (40°)4.6 mphMostly Cloudy
6:30 PM84.2 °F71.6 °F66 %29.92 in4.3 miNNE (30°)3.5 mphMostly Cloudy
7:00 PM84.0 °F72.0 °F58 %29.94 in4.0 miEast (80°)3.5 mphMist
7:00 PM84.2 °F71.6 °F66 %29.92 in4.3 miEast (80°)3.5 mphMostly Cloudy
7:30 PM82.4 °F71.6 °F70 %29.92 in4.3 miENE (70°)3.5 mphMostly Cloudy
8:00 PM82.4 °F71.6 °F70 %29.92 in4.3 miEast (80°)3.5 mphMostly Cloudy
8:30 PM82.4 °F71.6 °F70 %29.95 in4.3 miENE (60°)3.5 mphMostly Cloudy
9:00 PM82.4 °F71.6 °F70 %29.95 in4.3 miENE (60°)3.5 mphMostly Cloudy
9:30 PM82.4 °F71.6 °F70 %29.95 in4.3 miESE (120°)3.5 mphMostly Cloudy
10:00 PM82.4 °F71.6 °F70 %29.95 in4.3 miESE (120°)4.6 mphMostly Cloudy
10:30 PM82.4 °F71.6 °F70 %29.95 in4.3 miESE (120°)3.5 mphMostly Cloudy
11:00 PM82.4 °F71.6 °F70 %29.98 in4.3 miENE (70°)4.6 mphMostly Cloudy
11:30 PM80.6 °F71.6 °F74 %29.98 in4.3 miEast (80°)3.5 mphMostly Cloudy
Hourly data recorded from VTBD, located miles away from Bangkok, Thailand







STORIES FROM OUR PARTNERS